| time (UTC) | temp F | wind direction | speed MPH | gust MPH | rain 1hr in | rain 24hr in | rain mn in | humidity % | barometer mb |
| 20260504214956 | 65 | 251 | 8.0 | 9.0 | 0.00 | 0.00 | 0.00 | 49 | 1014.4 |
| 20260504214452 | 65 | 275 | 5.0 | 8.0 | 0.00 | 0.00 | 0.00 | 49 | 1014.3 |
| 20260504213948 | 66 | 273 | 7.0 | 13.0 | 0.00 | 0.00 | 0.00 | 48 | 1014.5 |
| 20260504213444 | 66 | 257 | 4.0 | 8.0 | 0.00 | 0.00 | 0.00 | 49 | 1014.3 |
| 20260504212942 | 66 | 290 | 6.0 | 9.0 | 0.00 | 0.00 | 0.00 | 47 | 1014.4 |
| 20260504212438 | 68 | 258 | 5.0 | 10.0 | 0.00 | 0.00 | 0.00 | 45 | 1014.4 |
| 20260504211936 | 68 | 283 | 6.0 | 9.0 | 0.00 | 0.00 | 0.00 | 45 | 1014.3 |
| 20260504211432 | 68 | 248 | 6.0 | 13.0 | 0.00 | 0.00 | 0.00 | 43 | 1014.3 |
| 20260504210929 | 68 | 265 | 9.0 | 14.0 | 0.00 | 0.00 | 0.00 | 45 | 1014.3 |
| 20260504210426 | 66 | 246 | 4.0 | 10.0 | 0.00 | 0.00 | 0.00 | 45 | 1014.2 |
| 20260504205923 | 66 | 264 | 7.0 | 8.0 | 0.00 | 0.00 | 0.00 | 46 | 1014.1 |
| 20260504205421 | 67 | 256 | 7.0 | 9.0 | 0.00 | 0.00 | 0.00 | 46 | 1014.2 |
| 20260504204919 | 67 | 243 | 10.0 | 14.0 | 0.00 | 0.00 | 0.00 | 45 | 1014.2 |
| 20260504204417 | 69 | 288 | 6.0 | 9.0 | 0.00 | 0.00 | 0.00 | 43 | 1014.0 |
| 20260504203916 | 70 | 248 | 4.0 | 11.0 | 0.00 | 0.00 | 0.00 | 44 | 1014.1 |
| 20260504203413 | 69 | 240 | 10.0 | 11.0 | 0.00 | 0.00 | 0.00 | 41 | 1014.0 |
| 20260504202908 | 67 | 260 | 7.0 | 11.0 | 0.00 | 0.00 | 0.00 | 44 | 1014.1 |
| 20260504202406 | 67 | 229 | 6.0 | 11.0 | 0.00 | 0.00 | 0.00 | 45 | 1013.9 |
| 20260504201902 | 67 | 272 | 8.0 | 9.0 | 0.00 | 0.00 | 0.00 | 45 | 1014.0 |
| 20260504201400 | 69 | 282 | 6.0 | 13.0 | 0.00 | 0.00 | 0.00 | 44 | 1014.0 |
| 20260504200857 | 67 | 283 | 7.0 | 13.0 | 0.00 | 0.00 | 0.00 | 46 | 1014.1 |
| 20260504200354 | 68 | 274 | 5.0 | 9.0 | 0.00 | 0.00 | 0.00 | 45 | 1014.1 |
| 20260504195850 | 67 | 249 | 4.0 | 6.0 | 0.00 | 0.00 | 0.00 | 48 | 1014.2 |
| 20260504195345 | 68 | 248 | 5.0 | 7.0 | 0.00 | 0.00 | 0.00 | 45 | 1014.3 |
| 20260504194843 | 69 | 292 | 8.0 | 10.0 | 0.00 | 0.00 | 0.00 | 45 | 1014.4 |
| 20260504194339 | 69 | 261 | 7.0 | 9.0 | 0.00 | 0.00 | 0.00 | 44 | 1014.3 |
| 20260504193835 | 69 | 230 | 4.0 | 8.0 | 0.00 | 0.00 | 0.00 | 46 | 1014.5 |
| 20260504193332 | 67 | 235 | 5.0 | 11.0 | 0.00 | 0.00 | 0.00 | 47 | 1014.7 |
| 20260504192831 | 66 | 237 | 10.0 | 11.0 | 0.00 | 0.00 | 0.00 | 46 | 1014.6 |
| 20260504192328 | 67 | 264 | 7.0 | 13.0 | 0.00 | 0.00 | 0.00 | 46 | 1014.5 |
| 20260504191827 | 68 | 255 | 11.0 | 15.0 | 0.00 | 0.00 | 0.00 | 45 | 1014.8 |
| 20260504191324 | 67 | 235 | 5.0 | 9.0 | 0.00 | 0.00 | 0.00 | 46 | 1014.6 |
| 20260504190819 | 67 | 272 | 7.0 | 10.0 | 0.00 | 0.00 | 0.00 | 46 | 1014.7 |
| 20260504190316 | 66 | 245 | 11.0 | 14.0 | 0.00 | 0.00 | 0.00 | 46 | 1014.5 |
| 20260504185812 | 66 | 251 | 9.0 | 14.0 | 0.00 | 0.00 | 0.00 | 48 | 1014.9 |
| 20260504185309 | 66 | 271 | 6.0 | 10.0 | 0.00 | 0.00 | 0.00 | 50 | 1014.9 |
| 20260504184805 | 66 | 249 | 5.0 | 10.0 | 0.00 | 0.00 | 0.00 | 47 | 1014.6 |
| 20260504184301 | 66 | 242 | 6.0 | 11.0 | 0.00 | 0.00 | 0.00 | 49 | 1014.7 |
| 20260504183757 | 67 | 232 | 5.0 | 8.0 | 0.00 | 0.00 | 0.00 | 47 | 1014.9 |
| 20260504183254 | 65 | 242 | 7.0 | 11.0 | 0.00 | 0.00 | 0.00 | 51 | 1015.1 |
| 20260504182752 | 66 | 234 | 4.0 | 7.0 | 0.00 | 0.00 | 0.00 | 50 | 1014.8 |
| 20260504110334 | 44 | 237 | 2.0 | 2.0 | 0.00 | 0.00 | 0.00 | 70 | 1017.1 |
| 20260504100252 | 46 | 252 | 1.0 | 2.0 | 0.00 | 0.00 | 0.00 | 65 | 1017.2 |
| 20260504081645 | 46 | 248 | 4.0 | 4.0 | 0.00 | 0.00 | 0.00 | 54 | 1017.2 |
| 20260504081141 | 46 | 266 | 4.0 | 6.0 | 0.00 | 0.00 | 0.00 | 53 | 1017.5 |
| 20260504080638 | 45 | 258 | 3.0 | 4.0 | 0.00 | 0.00 | 0.00 | 55 | 1017.4 |
| 20260504080134 | 45 | 248 | 3.0 | 4.0 | 0.00 | 0.00 | 0.00 | 54 | 1017.4 |
| 20260504050451 | 40 | 243 | 1.0 | 2.0 | 0.00 | 0.00 | 0.00 | 61 | 1018.3 |
| 20260504045948 | 39 | 243 | 1.0 | 1.0 | 0.00 | 0.00 | 0.00 | 62 | 1018.0 |
| 20260504045443 | 40 | 242 | 1.0 | 1.0 | 0.00 | 0.00 | 0.00 | 63 | 1018.1 |
| 20260504044940 | 39 | 242 | 0.0 | 0.0 | 0.00 | 0.00 | 0.00 | 63 | 1018.1 |
| 20260504044438 | 40 | 242 | 0.0 | 1.0 | 0.00 | 0.00 | 0.00 | 63 | 1018.3 |
| 20260504043935 | 38 | 242 | 1.0 | 1.0 | 0.00 | 0.00 | 0.00 | 63 | 1018.1 |
| 20260504043431 | 38 | 242 | 0.0 | 0.0 | 0.00 | 0.00 | 0.00 | 66 | 1018.3 |
| 20260504042929 | 39 | 242 | 0.0 | 0.0 | 0.00 | 0.00 | 0.00 | 65 | 1018.0 |
| 20260504042426 | 40 | 242 | 0.0 | 0.0 | 0.00 | 0.00 | 0.00 | 63 | 1018.1 |
| 20260504041922 | 39 | 242 | 1.0 | 2.0 | 0.00 | 0.00 | 0.00 | 62 | 1018.1 |
| 20260504041418 | 39 | 242 | 1.0 | 2.0 | 0.00 | 0.00 | 0.00 | 63 | 1018.2 |
| 20260504040914 | 38 | 242 | 0.0 | 1.0 | 0.00 | 0.00 | 0.00 | 67 | 1017.9 |
| 20260504040413 | 38 | 242 | 0.0 | 0.0 | 0.00 | 0.00 | 0.00 | 69 | 1018.2 |
| 20260504035908 | 39 | 242 | 0.0 | 0.0 | 0.00 | 0.00 | 0.00 | 69 | 1018.3 |
| 20260504035406 | 41 | 242 | 0.0 | 0.0 | 0.00 | 0.00 | 0.00 | 63 | 1018.1 |
| 20260504034902 | 41 | 242 | 0.0 | 2.0 | 0.00 | 0.00 | 0.00 | 59 | 1018.3 |
| 20260504034359 | 42 | 246 | 1.0 | 2.0 | 0.00 | 0.00 | 0.00 | 57 | 1018.1 |
| 20260504033856 | 41 | 260 | 2.0 | 2.0 | 0.00 | 0.00 | 0.00 | 58 | 1018.2 |
| 20260504033354 | 41 | 267 | 3.0 | 4.0 | 0.00 | 0.00 | 0.00 | 56 | 1018.1 |
| 20260504032850 | 41 | 273 | 3.0 | 3.0 | 0.00 | 0.00 | 0.00 | 58 | 1018.2 |
| 20260504032347 | 41 | 275 | 2.0 | 3.0 | 0.00 | 0.00 | 0.00 | 59 | 1018.1 |
| 20260504031844 | 41 | 276 | 3.0 | 3.0 | 0.00 | 0.00 | 0.00 | 57 | 1018.1 |
| 20260504031341 | 41 | 270 | 2.0 | 3.0 | 0.00 | 0.00 | 0.00 | 58 | 1018.2 |
| 20260504030837 | 41 | 261 | 2.0 | 2.0 | 0.00 | 0.00 | 0.00 | 58 | 1018.4 |
| 20260504030335 | 41 | 263 | 2.0 | 2.0 | 0.00 | 0.00 | 0.00 | 57 | 1018.3 |
| 20260504025831 | 41 | 263 | 2.0 | 3.0 | 0.00 | 0.00 | 0.00 | 58 | 1018.3 |
| 20260504025328 | 41 | 269 | 2.0 | 2.0 | 0.00 | 0.00 | 0.00 | 58 | 1018.3 |
| 20260504024825 | 41 | 270 | 2.0 | 2.0 | 0.00 | 0.00 | 0.00 | 57 | 1018.4 |
| 20260504024321 | 41 | 273 | 2.0 | 3.0 | 0.00 | 0.00 | 0.00 | 57 | 1018.3 |
| 20260504023818 | 41 | 271 | 2.0 | 3.0 | 0.00 | 0.00 | 0.00 | 56 | 1018.3 |
| 20260504023315 | 41 | 273 | 2.0 | 2.0 | 0.00 | 0.00 | 0.00 | 56 | 1018.5 |
| 20260504022810 | 41 | 278 | 2.0 | 2.0 | 0.00 | 0.00 | 0.00 | 56 | 1018.3 |
| 20260504022307 | 42 | 278 | 2.0 | 2.0 | 0.00 | 0.00 | 0.00 | 56 | 1018.3 |
| 20260504021804 | 42 | 278 | 1.0 | 2.0 | 0.00 | 0.00 | 0.00 | 55 | 1018.2 |
| 20260504021302 | 42 | 279 | 2.0 | 2.0 | 0.00 | 0.00 | 0.00 | 55 | 1018.3 |
| 20260504020758 | 42 | 279 | 1.0 | 2.0 | 0.00 | 0.00 | 0.00 | 54 | 1018.5 |
| 20260504020254 | 42 | 279 | 1.0 | 2.0 | 0.00 | 0.00 | 0.00 | 55 | 1018.5 |
| 20260504015750 | 43 | 279 | 2.0 | 2.0 | 0.00 | 0.00 | 0.00 | 54 | 1018.3 |
| 20260504015247 | 42 | 279 | 1.0 | 2.0 | 0.00 | 0.00 | 0.00 | 54 | 1018.4 |
| 20260504014743 | 42 | 279 | 1.0 | 2.0 | 0.00 | 0.00 | 0.00 | 56 | 1018.4 |
| 20260504014240 | 41 | 279 | 1.0 | 1.0 | 0.00 | 0.00 | 0.00 | 58 | 1018.3 |
| 20260504013737 | 41 | 279 | 0.0 | 0.0 | 0.00 | 0.00 | 0.00 | 62 | 1018.2 |
| 20260504013235 | 42 | 279 | 0.0 | 0.0 | 0.00 | 0.00 | 0.00 | 63 | 1018.1 |
| 20260504012731 | 42 | 279 | 1.0 | 1.0 | 0.00 | 0.00 | 0.00 | 55 | 1018.1 |
| 20260504012229 | 42 | 279 | 1.0 | 1.0 | 0.00 | 0.00 | 0.00 | 56 | 1018.0 |
| 20260504011726 | 42 | 279 | 0.0 | 0.0 | 0.00 | 0.00 | 0.00 | 56 | 1018.0 |
| 20260504011223 | 42 | 279 | 0.0 | 0.0 | 0.00 | 0.00 | 0.00 | 56 | 1018.0 |
| 20260504010719 | 42 | 279 | 0.0 | 0.0 | 0.00 | 0.00 | 0.00 | 56 | 1017.9 |
| 20260504010214 | 43 | 279 | 0.0 | 0.0 | 0.00 | 0.00 | 0.00 | 54 | 1017.9 |
| 20260504005711 | 44 | 279 | 0.0 | 0.0 | 0.00 | 0.00 | 0.00 | 52 | 1017.7 |
| 20260504005208 | 44 | 279 | 1.0 | 1.0 | 0.00 | 0.00 | 0.00 | 51 | 1018.0 |
| 20260504004706 | 44 | 279 | 1.0 | 1.0 | 0.00 | 0.00 | 0.00 | 51 | 1018.0 |
| 20260504004203 | 44 | 279 | 0.0 | 0.0 | 0.00 | 0.00 | 0.00 | 51 | 1017.9 |
| 20260504003659 | 44 | 279 | 0.0 | 0.0 | 0.00 | 0.00 | 0.00 | 51 | 1017.8 |
| 20260504003156 | 44 | 279 | 0.0 | 0.0 | 0.00 | 0.00 | 0.00 | 50 | 1017.9 |
| 20260504002653 | 44 | 279 | 0.0 | 1.0 | 0.00 | 0.00 | 0.00 | 51 | 1017.9 |
| 20260504002150 | 45 | 279 | 0.0 | 2.0 | 0.00 | 0.00 | 0.00 | 50 | 1017.9 |
| 20260504001648 | 45 | 279 | 1.0 | 2.0 | 0.00 | 0.00 | 0.00 | 48 | 1017.9 |
| 20260504001144 | 46 | 285 | 1.0 | 2.0 | 0.00 | 0.00 | 0.00 | 48 | 1018.0 |
| 20260504000641 | 46 | 265 | 1.0 | 4.0 | 0.00 | 0.00 | 0.00 | 47 | 1017.9 |
| 20260504000139 | 46 | 264 | 2.0 | 3.0 | 0.00 | 0.00 | 0.00 | 46 | 1017.9 |
| 20260503235637 | 47 | 257 | 3.0 | 4.0 | 0.00 | 0.00 | 0.00 | 45 | 1018.0 |
| 20260503235133 | 47 | 271 | 2.0 | 3.0 | 0.00 | 0.00 | 0.00 | 47 | 1018.0 |
| 20260503234631 | 46 | 277 | 3.0 | 4.0 | 0.00 | 0.00 | 0.00 | 45 | 1018.1 |
| 20260503234129 | 47 | 264 | 2.0 | 2.0 | 0.00 | 0.00 | 0.00 | 46 | 1018.1 |
| 20260503233626 | 48 | 309 | 1.0 | 4.0 | 0.00 | 0.00 | 0.00 | 44 | 1018.0 |
| 20260503233121 | 48 | 295 | 3.0 | 4.0 | 0.00 | 0.00 | 0.00 | 44 | 1018.1 |
| 20260503232619 | 48 | 312 | 1.0 | 3.0 | 0.00 | 0.00 | 0.00 | 43 | 1017.9 |
| 20260503232116 | 49 | 277 | 3.0 | 4.0 | 0.00 | 0.00 | 0.00 | 42 | 1018.1 |
| 20260503231614 | 49 | 244 | 4.0 | 7.0 | 0.00 | 0.00 | 0.00 | 42 | 1018.1 |
| 20260503231110 | 49 | 278 | 2.0 | 4.0 | 0.00 | 0.00 | 0.00 | 42 | 1018.1 |
| 20260503230607 | 49 | 269 | 3.0 | 8.0 | 0.00 | 0.00 | 0.00 | 41 | 1018.1 |
| 20260503230104 | 50 | 291 | 5.0 | 6.0 | 0.00 | 0.00 | 0.00 | 41 | 1018.1 |
| 20260503225602 | 50 | 310 | 3.0 | 4.0 | 0.00 | 0.00 | 0.00 | 43 | 1017.8 |
| 20260503225057 | 50 | 261 | 1.0 | 4.0 | 0.00 | 0.00 | 0.00 | 42 | 1017.9 |
| 20260503224555 | 50 | 254 | 1.0 | 3.0 | 0.00 | 0.00 | 0.00 | 42 | 1018.2 |
| 20260503224053 | 50 | 280 | 1.0 | 4.0 | 0.00 | 0.00 | 0.00 | 40 | 1018.0 |
| 20260503223550 | 51 | 265 | 4.0 | 7.0 | 0.00 | 0.00 | 0.00 | 39 | 1018.2 |
| 20260503223045 | 51 | 309 | 1.0 | 4.0 | 0.00 | 0.00 | 0.00 | 40 | 1018.2 |
| 20260503222544 | 51 | 294 | 2.0 | 3.0 | 0.00 | 0.00 | 0.00 | 41 | 1018.2 |
| 20260503222041 | 51 | 299 | 0.0 | 3.0 | 0.00 | 0.00 | 0.00 | 41 | 1018.0 |
| 20260503221539 | 51 | 303 | 2.0 | 4.0 | 0.00 | 0.00 | 0.00 | 40 | 1018.0 |
| 20260503221037 | 51 | 52 | 1.0 | 6.0 | 0.00 | 0.00 | 0.00 | 39 | 1018.1 |
| 20260503220532 | 51 | 302 | 1.0 | 8.0 | 0.00 | 0.00 | 0.00 | 39 | 1018.2 |
| 20260503220030 | 51 | 260 | 4.0 | 8.0 | 0.00 | 0.00 | 0.00 | 38 | 1018.1 |
| 20260503215527 | 51 | 274 | 4.0 | 7.0 | 0.00 | 0.00 | 0.00 | 38 | 1018.3 |